Content
SEND FEEDBACK

Daily
Averages
Monthly
Summary
United States of America

PACIFIC GROVE, CALIFORNIA


Home > North America > United States > California
Elevation: 331 feet     Latitude: 36 36N     Longitude: 121 55W

WEATHER
 
SELECT A DAY
Number of Records: 192,004;   Date Range: 7/1/96 - 7/29/14
 
SHARE

PRINT THIS DATA

[ ← Previous Day ]
WEATHER ALMANAC - MARCH 28, 2013
[ Next Day → ]
[ °C ]   °F
Weather ElementAverageHighLow
Temperature56.8 °F63 °F (3:54 pm)50 °F (11:54 pm)
Dewpoint51.5 °F53.6 °F (9:47 am)48 °F (11:54 pm)
Humidity82.9 %94 % (4:15 am)65 % (3:54 pm)
Barometer30.09 in30.14 in (9:54 pm)30.03 in (4:15 am)
Wind Speed4.5 mph11.5 mph (1:04 pm)
Weather ElementAverage
Visibility9.2 mi
Wind DirectionE (95 °)

Weather ElementTotal
Precipitation---
Heating Degree Days8.5 (Base 65)
Growing Degree Days6.5 (Base 50)
Averaged from 36 records on March 28, 2013
WEATHER CONDITIONS BREAKOUT
WIND DIRECTION BREAKOUT
WEATHER BY HOUR - MARCH 28, 2013
[ °C ]   °F
Local TimeTemperatureDewpointHumidityBarometerVisibilityWind DirectionWind SpeedGust SpeedPrecipitationEventsConditions
1:06 AM55.4 °F51.8 °F88 %30.04 in9.0 miEast (100°)3.5 mphOvercast
1:54 AM54.0 °F51.1 °F90 %30.08 in10.0 miENE (70°)3.5 mphOvercast
2:54 AM54.0 °F51.1 °F90 %30.07 in10.0 miCalmOvercast
3:54 AM54.0 °F51.1 °F90 %30.07 in10.0 miCalmOvercast
4:15 AM53.6 °F51.8 °F94 %30.03 in10.0 miCalmOvercast
4:54 AM53.1 °F51.1 °F93 %30.07 in10.0 miCalmOvercast
5:07 AM53.6 °F51.8 °F94 %30.04 in10.0 miCalmOvercast
5:54 AM54.0 °F51.1 °F90 %30.07 in10.0 miCalmOvercast
6:54 AM55.0 °F52.0 °F89 %30.09 in10.0 miESE (110°)3.5 mphOvercast
7:54 AM55.9 °F52.0 °F87 %30.10 in10.0 miCalmOvercast
8:54 AM55.9 °F52.0 °F87 %30.12 in10.0 miCalmOvercast
9:25 AM57.2 °F51.8 °F82 %30.08 in7.0 miCalmOvercast
9:47 AM57.2 °F53.6 °F88 %30.07 in7.0 miCalmOvercast
9:54 AM57.0 °F52.0 °F83 %30.11 in10.0 miEast (80°)4.6 mphOvercast
10:18 AM57.2 °F51.8 °F82 %30.07 in10.0 miENE (60°)6.9 mphOvercast
10:54 AM59.0 °F51.1 °F75 %30.11 in10.0 miNE (40°)6.9 mphOvercast
11:54 AM61.0 °F51.1 °F70 %30.13 in10.0 miSSW (210°)9.2 mphScattered Clouds
12:02 PM60.8 °F51.8 °F72 %30.09 in10.0 miSW (220°)9.2 mphMostly Cloudy
12:25 PM60.8 °F53.6 °F77 %30.09 in10.0 miSW (220°)10.4 mphScattered Clouds
12:54 PM62.1 °F53.1 °F72 %30.13 in10.0 miSSW (210°)10.4 mphScattered Clouds
1:04 PM60.8 °F53.6 °F77 %30.09 in10.0 miSW (220°)11.5 mphMostly Cloudy
1:29 PM62.6 °F51.8 °F68 %30.09 in10.0 miSSW (200°)10.4 mphScattered Clouds
1:54 PM62.1 °F52.0 °F70 %30.12 in10.0 miSSW (210°)11.5 mphPartly Cloudy
2:54 PM62.1 °F52.0 °F70 %30.10 in10.0 miSSW (210°)9.2 mphClear
3:54 PM63.0 °F51.1 °F65 %30.08 in10.0 miSW (230°)8.1 mphPartly Cloudy
4:54 PM63.0 °F51.1 °F65 %30.08 in10.0 miSW (230°)5.8 mphPartly Cloudy
5:54 PM61.0 °F50.0 °F67 %30.10 in10.0 miSW (220°)10.4 mphPartly Cloudy
6:54 PM57.9 °F50.0 °F75 %30.11 in10.0 miSW (230°)6.9 mphMostly Cloudy
7:54 PM55.9 °F51.1 °F84 %30.12 in10.0 miVariable3.5 mphPartly Cloudy
8:47 PM53.6 °F51.8 °F94 %30.09 in4.0 miCalmMostly Cloudy
8:54 PM53.1 °F51.1 °F93 %30.13 in2.5 miCalmMostly Cloudy
9:05 PM53.6 °F51.8 °F94 %30.10 in3.0 miCalmOvercast
9:54 PM53.1 °F51.1 °F93 %30.14 in7.0 miENE (70°)3.5 mphOvercast
10:17 PM51.8 °F50.0 °F94 %30.11 in10.0 miEast (100°)4.6 mphOvercast
10:54 PM52.0 °F48.9 °F89 %30.14 in10.0 miENE (60°)3.5 mphMostly Cloudy
11:54 PM50.0 °F48.0 °F93 %30.13 in10.0 miESE (120°)4.6 mphClear
Hourly data recorded from KMRY, located miles away from Pacific Grove, California







STORIES FROM OUR PARTNERS